Location: Helsinki
(60.1699°N, 24.9384°E)
Time: 03:19:23
(UTC+02:00)

Transit 4A - All Passes

Search period start: 27 October 2020 00:00
Search period end: 06 November 2020 00:00
Orbit: 862 x 982 km, 66.8° (Epoch: 26 October)

Date Brightness Start Highest point End Pass type
(mag) Time Alt. Az. Time Alt. Az. Time Alt. Az.
27 Oct - 00:12:12 10° NW 00:18:25 52° SW 00:24:33 10° SSE visible
27 Oct - 01:59:47 10° WNW 02:03:30 16° WSW 02:07:11 10° SW night (unlit)
27 Oct - 15:28:44 10° S 15:34:10 32° ESE 15:39:44 10° ENE daylight
27 Oct - 17:13:38 10° SW 17:19:59 86° SE 17:26:29 10° NE visible
27 Oct - 19:00:40 10° W 19:06:55 53° NNW 19:13:15 10° ENE visible
27 Oct - 20:48:07 10° WNW 20:54:22 49° N 21:00:37 10° E visible
27 Oct - 22:35:00 10° NW 22:41:29 80° NE 22:47:54 10° ESE visible
28 Oct - 00:21:38 10° NW 00:27:36 41° WSW 00:33:28 10° S visible
28 Oct - 02:10:16 10° W 02:12:23 12° W 02:14:29 10° WSW night (unlit)
28 Oct - 13:56:42 10° ESE 13:58:32 11° E 14:00:23 10° E daylight
28 Oct - 15:37:28 10° S 15:43:17 40° ESE 15:49:13 10° NE daylight
28 Oct - 17:23:00 10° SW 17:29:22 81° NW 17:35:52 10° NE visible
28 Oct - 19:10:15 10° W 19:16:29 50° N 19:22:44 10° ENE visible
28 Oct - 20:57:37 10° WNW 21:03:55 53° NNE 21:10:12 10° E visible
28 Oct - 22:44:22 10° NW 22:50:51 87° SW 22:57:16 10° SE visible
29 Oct - 00:31:06 10° NW 00:36:42 32° WSW 00:42:13 10° S visible
29 Oct - 14:03:50 10° SE 14:07:24 16° ESE 14:11:00 10° ENE daylight
29 Oct - 15:46:23 10° SSW 15:52:27 51° SE 15:58:39 10° NE daylight
29 Oct - 17:32:25 10° WSW 17:38:48 70° NNW 17:45:16 10° NE visible
29 Oct - 19:19:50 10° W 19:26:03 48° N 19:32:16 10° ENE visible
29 Oct - 21:07:05 10° WNW 21:13:27 57° NNE 21:19:47 10° E visible
29 Oct - 22:53:45 10° NW 23:00:11 73° SW 23:06:33 10° SE visible
30 Oct - 00:40:40 10° WNW 00:45:45 25° WSW 00:50:47 10° SSW visible
30 Oct - 14:11:49 10° SSE 14:16:20 21° ESE 14:20:54 10° ENE daylight
30 Oct - 15:55:27 10° SSW 16:01:41 63° SE 16:08:03 10° NE daylight
30 Oct - 17:41:56 10° WSW 17:48:16 62° NNW 17:54:41 10° ENE visible
30 Oct - 19:29:25 10° WNW 19:35:37 47° N 19:41:50 10° ENE visible
30 Oct - 21:16:31 10° NW 21:22:57 64° NNE 21:29:19 10° ESE visible
30 Oct - 23:03:08 10° NW 23:09:27 60° SW 23:15:42 10° SSE visible
31 Oct - 00:50:23 10° WNW 00:54:44 19° WSW 00:59:03 10° SSW visible
31 Oct - 14:20:10 10° SSE 14:25:20 27° ESE 14:30:34 10° ENE daylight
31 Oct - 16:04:38 10° SW 16:10:59 77° SE 16:17:26 10° NE daylight
31 Oct - 17:51:29 10° W 17:57:47 56° NNW 18:04:07 10° ENE visible
31 Oct - 19:38:58 10° WNW 19:45:12 48° N 19:51:25 10° E visible
31 Oct - 21:25:56 10° NW 21:32:24 73° NNE 21:38:48 10° ESE visible
31 Oct - 23:12:33 10° NW 23:18:41 48° SW 23:24:43 10° SSE visible
01 Nov - 01:00:25 10° WNW 01:03:39 14° WSW 01:06:53 10° SW visible
01 Nov - 14:28:48 10° S 14:34:24 35° ESE 14:40:07 10° NE daylight
01 Nov - 16:13:56 10° SW 16:20:19 89° NW 16:26:49 10° NE daylight
01 Nov - 18:01:04 10° W 18:07:19 52° NNW 18:13:36 10° ENE visible
01 Nov - 19:48:29 10° WNW 19:54:46 50° NNE 20:01:01 10° E visible
01 Nov - 21:35:19 10° NW 21:41:49 85° NE 21:48:14 10° SE visible
01 Nov - 23:21:59 10° NW 23:27:50 38° WSW 23:33:35 10° S visible
02 Nov - 01:11:43 10° W 01:12:30 10° W 01:13:17 10° WSW visible
02 Nov - 12:56:01 10° SE 12:58:40 13° E 13:01:20 10° ENE daylight
02 Nov - 14:37:36 10° SSW 14:43:32 44° ESE 14:49:34 10° NE daylight
02 Nov - 16:23:19 10° WSW 16:29:43 77° NW 16:36:12 10° NE daylight
02 Nov - 18:10:39 10° W 18:16:52 49° N 18:23:07 10° ENE visible
02 Nov - 19:57:59 10° WNW 20:04:19 54° NNE 20:10:36 10° E visible
02 Nov - 21:44:42 10° NW 21:51:11 82° SW 21:57:34 10° SE visible
02 Nov - 23:31:30 10° WNW 23:36:55 30° WSW 23:42:16 10° S visible
03 Nov - 13:03:35 10° SE 13:07:33 18° ESE 13:11:34 10° ENE daylight
03 Nov - 14:46:34 10° SSW 14:52:44 55° SE 14:58:59 10° NE daylight
03 Nov - 16:32:46 10° WSW 16:39:09 67° NNW 16:45:36 10° NE daylight
03 Nov - 18:20:14 10° WNW 18:26:27 48° N 18:32:40 10° ENE visible
03 Nov - 20:07:26 10° WNW 20:13:49 60° NNE 20:20:10 10° ESE visible
03 Nov - 21:54:05 10° NW 22:00:29 68° SW 22:06:47 10° SSE visible
03 Nov - 23:41:06 10° WNW 23:45:57 23° WSW 23:50:44 10° SSW visible
04 Nov - 13:11:44 10° SSE 13:16:31 23° ESE 13:21:22 10° ENE daylight
04 Nov - 14:55:41 10° SSW 15:01:58 68° SE 15:08:22 10° NE daylight
04 Nov - 16:42:19 10° WSW 16:48:38 59° NNW 16:55:02 10° ENE daylight
04 Nov - 18:29:48 10° WNW 18:36:01 48° N 18:42:13 10° ENE visible
04 Nov - 20:16:52 10° NW 20:23:18 67° NNE 20:29:41 10° ESE visible
04 Nov - 22:03:28 10° NW 22:09:44 55° SW 22:15:54 10° SSE visible
04 Nov - 23:50:54 10° WNW 23:54:54 18° WSW 23:58:52 10° SW visible
05 Nov - 13:20:11 10° S 13:25:32 30° ESE 13:30:58 10° ENE daylight
05 Nov - 15:04:54 10° SW 15:11:17 82° SE 15:17:45 10° NE daylight
05 Nov - 16:51:52 10° W 16:58:09 54° NNW 17:04:29 10° ENE visible
05 Nov - 18:39:20 10° WNW 18:45:35 49° N 18:51:49 10° E visible
05 Nov - 20:26:16 10° NW 20:32:45 77° NE 20:39:09 10° ESE visible
05 Nov - 22:12:54 10° NW 22:18:56 44° WSW 22:24:52 10° SSE visible
